OH2FDL-2 Weather Reports


Display with metric or nautical units.
time (UTC)temp
F
wind
direction
speed
MPH
gust
MPH
rain 1hr
in
rain 24hr
in
rain mn
in
humidity
%
barometer
mb
20260508094517 59 0.0 0.0 0.00 0.00 0.00 41 1021.9
20260508093018 61 0.0 0.0 0.00 0.00 0.00 42 1021.9
20260508091517 60 0.0 0.0 0.00 0.00 0.00 44 1021.9
20260508090017 60 0.0 0.0 0.00 0.00 0.00 47 1022.0
20260508084518 58 0.0 0.0 0.00 0.00 0.00 51 1022.0
20260508083018 55 0.0 0.0 0.00 0.00 0.00 56 1022.1
20260508081523 52 0.0 0.0 0.00 0.00 0.00 56 1021.9
20260508080018 51 0.0 0.0 0.00 0.00 0.00 58 1021.9
20260508074518 51 0.0 0.0 0.00 0.00 0.00 61 1021.8
20260508073017 50 0.0 0.0 0.00 0.00 0.00 62 1021.7
20260508071518 49 0.0 0.0 0.00 0.00 0.00 65 1021.7
20260508070018 48 0.0 0.0 0.00 0.00 0.00 68 1021.6
20260508064518 48 0.0 0.0 0.00 0.00 0.00 71 1021.4
20260508063018 47 0.0 0.0 0.00 0.00 0.00 73 1021.3
20260508061518 46 0.0 0.0 0.00 0.00 0.00 75 1021.1
20260508060017 45 0.0 0.0 0.00 0.00 0.00 78 1021.0
20260508054518 44 0.0 0.0 0.00 0.00 0.00 81 1020.8
20260508051518 43 0.0 0.0 0.00 0.00 0.00 84 1020.6
20260508050018 42 0.0 0.0 0.00 0.00 0.00 86 1020.4
20260508044518 41 0.0 0.0 0.00 0.00 0.00 87 1020.2
20260508043018 40 0.0 0.0 0.00 0.00 0.00 88 1020.1
20260508040018 38 0.0 0.0 0.00 0.00 0.00 89 1019.8
20260508034517 37 0.0 0.0 0.00 0.00 0.00 90 1019.7
20260508031518 34 0.0 0.0 0.00 0.00 0.00 89 1019.3
20260508030018 33 0.0 0.0 0.00 0.00 0.00 87 1019.1
20260508024517 32 0.0 0.0 0.00 0.00 0.00 88 1018.9
20260508023018 32 0.0 0.0 0.00 0.00 0.00 85 1018.7
20260508021517 31 0.0 0.0 0.00 0.00 0.00 83 1018.5
20260508020018 31 0.0 0.0 0.00 0.00 0.00 81 1018.3
20260508014517 31 0.0 0.0 0.00 0.00 0.00 79 1018.3
20260508013018 32 0.0 0.0 0.00 0.00 0.00 77 1018.0
20260508010018 35 0.0 0.0 0.00 0.00 0.00 72 1017.7
20260508004518 36 0.0 0.0 0.00 0.00 0.00 71 1017.6
20260508003018 37 0.0 0.0 0.00 0.00 0.00 70 1017.4
20260508001518 38 0.0 0.0 0.00 0.00 0.00 69 1017.2
20260507233019 39 0.0 0.0 0.00 0.00 0.00 65 1016.6
20260507231518 39 0.0 0.0 0.00 0.00 0.00 64 1016.4
20260507223017 40 0.0 0.0 0.00 0.00 0.00 60 1015.8
20260507221518 40 0.0 0.0 0.00 0.00 0.00 59 1015.7
20260507220018 40 0.0 0.0 0.00 0.00 0.00 59 1015.5
20260507214518 41 0.0 0.0 0.00 0.00 0.00 58 1015.3
20260507213017 40 0.0 0.0 0.00 0.00 0.00 57 1015.2
20260507211518 40 0.0 0.0 0.00 0.00 0.00 56 1014.9
20260507210018 40 0.0 0.0 0.00 0.00 0.00 55 1014.7
20260507203019 41 0.0 0.0 0.00 0.00 0.00 55 1014.3
20260507201518 41 0.0 0.0 0.00 0.00 0.00 55 1014.2
20260507200018 40 0.0 0.0 0.00 0.00 0.00 55 1013.9
20260507194518 38 0.0 0.0 0.00 0.00 0.00 54 1013.7
20260507193018 39 0.0 0.0 0.00 0.00 0.00 53 1013.5
20260507183017 44 0.0 0.0 0.00 0.00 0.00 46 1012.8
20260507181518 45 0.0 0.0 0.00 0.00 0.00 44 1012.7
20260507174518 48 0.0 0.0 0.00 0.00 0.00 41 1012.4
20260507173018 49 0.0 0.0 0.00 0.00 0.00 40 1012.3
20260507171518 50 0.0 0.0 0.00 0.00 0.00 39 1012.3
20260507170019 51 0.0 0.0 0.00 0.00 0.00 37 1012.2
20260507164518 52 0.0 0.0 0.00 0.00 0.00 36 1012.1
20260507163018 53 0.0 0.0 0.00 0.00 0.00 35 1012.1
20260507161518 54 0.0 0.0 0.00 0.00 0.00 34 1012.0
20260507160018 55 0.0 0.0 0.00 0.00 0.00 34 1011.9
20260507154518 56 0.0 0.0 0.00 0.00 0.00 33 1011.8
20260507153018 57 0.0 0.0 0.00 0.00 0.00 33 1011.6
20260507144517 59 0.0 0.0 0.00 0.00 0.00 32 1011.5
20260507143019 60 0.0 0.0 0.00 0.00 0.00 33 1011.5
20260507141518 60 0.0 0.0 0.00 0.00 0.00 34 1011.5
20260507134523 61 0.0 0.0 0.00 0.00 0.00 35 1011.4
20260507133018 61 0.0 0.0 0.00 0.00 0.00 36 1011.3
20260507131518 61 0.0 0.0 0.00 0.00 0.00 36 1011.3
20260507130018 60 0.0 0.0 0.00 0.00 0.00 36 1011.3
20260507123023 59 0.0 0.0 0.00 0.00 0.00 38 1011.3
20260507121523 59 0.0 0.0 0.00 0.00 0.00 39 1011.2
20260507120017 58 0.0 0.0 0.00 0.00 0.00 40 1011.2
20260507114517 57 0.0 0.0 0.00 0.00 0.00 40 1011.3
20260507113018 56 0.0 0.0 0.00 0.00 0.00 40 1011.2
20260507111518 56 0.0 0.0 0.00 0.00 0.00 39 1011.2
20260507110018 56 0.0 0.0 0.00 0.00 0.00 38 1011.2
20260507104523 56 0.0 0.0 0.00 0.00 0.00 39 1011.2
20260507103022 56 0.0 0.0 0.00 0.00 0.00 39 1011.3
20260507100017 58 0.0 0.0 0.00 0.00 0.00 39 1011.2